SCP
0 0 -0 -0 -0 -0 -0 -0 -0 -0 -0 -0 -0 -0 -0 0 -0 0 0 0 0 -0 0 0 -0 -0 -0 -0 0 0 0 0 0 0 0 0 0 0 0 0 0 0 0 0 0 0 0 0 0 0 0 0 0 0
0 0 0 -0 -0 -0 -0 -0 0 0 -0 -0 -0 -0 0 -0 -0 -0 0 0 0 0 -0 0 0 0 -0 0 0 0 0 0 0 0 0 0 0 0 0 0 0 0 0 0 0 0 0 0 0 0 0 0 0 0
0 0 0 0 0 -0 -0 -0 0 0 0 -0 0 0 0 0 -0 0 0 0 0 0 0 0 -0 0 -0 0 0 -0 0 0 0 0 0 0 0 0 0 0 0 0 0 0 0 0 0 0 0 0 0 0 0 0
-0 0 0 0 0 0 -0 -0 -0 -0 -0 -0 -0 0 0 0 0 0 0 0 0 0 0 0 -0 -0 0 0 -0 -0 -0 0 0 0 0 0 0 0 0 0 0 0 0 0 0 0 0 0 0 0 0 0 0 0
0 0 0 0 0 0 -0 -0 -0 -0 -0 -0 0 0 0 0 0 0 0 0 0 0 0 0 0 -0 0 0 -0 -0 -0 -0 -0 -0 -0 -0 -0 -0 -0 -0 0 0 0 0 0 -0 -0 -0 -0 -0 -0 -0 -0 0
0 0 0 0 -0 -0 0 -0 -0 0 -0 -0 -0 0 0 0 0 0 0 0 0 0 0 0 0 0 0 -0 -0 -0 -0 -0 -0 -0 -0 -0 -0 -0 -0 -0 0 0 0 0 0 -0 -0 -0 -0 -0 -0 0 0 0
0 0 0 0 0 0 0 0 -0 -0 -0 -0 -0 -0 -0 -0 0 0 0 -0 -0 0 0 0 0 0 0 0 0 0 0 -0 -0 -0 -0 -0 -0 -0 -0 0 0 -0 -0 -0 -0 -0 -0 -0 -0 -0 0 0 0 0
0 0 0 0 0 0 0 0 -0 0 -0 -0 -0 -0 -0 -0 -0 0 0 0 0 0 0 0 0 0 0 0 0 0 0 0 0 0 -0 -0 -0 0 -0 -0 0 -0 0 -0 0 0 0 0 -0 -0 0 0 0 0
0 0 0 0 0 0 0 0 -0 -0 -0 -0 -0 -0 -0 -0 -0 0 0 0 0 0 0 0 0 0 0 0 0 0 0 0 0 0 0 0 0 -0 -0 -0 -0 -0 -0 0 -0 0 -0 0 0 0 0 0 0 0
0 0 0 0 0 0 0 0 0 0 -0 -0 -0 0 0 0 0 -0 0 0 0 0 -0 0 0 0 0 0 0 0 0 0 0 0 0 0 -0 -0 -0 -0 -0 -0 -0 -0 0 0 0 0 0 0 0 0 0 0
0 0 0 0 0 0 0 0 0 0 0 0 0 0 0 0 0 0 -0 0 0 -0 -0 0 0 0 0 0 0 0 0 0 0 -0 -0 -0 -0 -0 -0 -0 -0 -0 -0 -0 -0 0 0 0 0 0 0 0 0 0
0 0 0 0 0 0 0 0 0 0 0 0 0 0 0 0 0 0 0 -0 -0 -0 0 0 0 0 0 0 0 0 0 0 0 0 0 -0 -0 -0 -0 -0 -0 0 0 0 0 0 0 0 0 0 0 0 0 0
0 0 0 0 0 0 0 0 0 0 0 0 0 0 0 0 0 0 0 -0 0 0 0 0 0 0 0 0 0 0 0 0 0 0 0 0 0 -0 0 0 0 0 0 0 0 0 0 0 0 0 0 0 0 0
0 0 0 0 0 0 0 0 0 0 0 0 0 0 0 0 0 0 0 0 0 0 0 0 0 0 0 0 0 0 0 0 0 0 -0 0 0 0 0 0 0 0 0 0 0 0 0 0 0 0 0 0 0 0
0 0 0 0 0 0 0 0 0 0 0 0 0 0 0 0 0 0 0 0 0 0 0 0 0 0 0 0 0 0 0 0 0 0 0 0 -0 -0 0 0 0 0 0 0 0 0 0 0 0 0 0 0 0 0
0 0 0 0 0 0 0 0 0 0 0 0 0 0 0 0 0 0 0 0 0 0 0 0 0 0 0 0 0 0 0 0 0 0 0 0 -0 0 0 0 0 0 0 0 0 0 0 0 0 0 0 0 0 0
0 0 0 0 0 0 0 0 0 0 0 0 0 0 0 0 0 0 0 0 0 0 0 0 0 0 0 0 0 0 0 0 0 0 0 0 0 0 0 0 0 0 0 0 0 0 0 0 0 0 0 0 0 0
0 0 0 0 0 0 0 0 0 0 0 0 0 0 0 0 0 0 0 0 0 0 0 0 0 0 0 0 0 0 0 0 0 0 0 0 0 0 0 0 0 0 0 0 0 0 0 0 0 0 0 0 0 0
0 0 0 0 0 0 0 0 0 0 0 0 0 0 0 0 0 0 0 0 0 0 0 0 0 0 0 0 0 0 0 0 0 0 0 0 0 0 0 0 0 0 0 0 0 0 0 0 0 0 0 0 0 0
0 0 0 0 0 0 0 0 0 0 0 0 0 0 0 0 0 0 0 0 0 0 0 0 0 0 0 0 0 0 0 0 0 0 0 0 0 0 0 0 0 0 0 0 0 0 0 0 0 0 0 0 0 0
0 0 0 0 0 0 0 0 0 0 0 0 0 0 0 0 0 0 0 0 0 0 0 0 0 0 0 0 0 0 0 0 0 0 0 0 0 0 0 0 0 0 0 0 0 0 0 0 0 0 0 0 0 0
0 0 0 0 0 0 0 0 0 0 0 0 0 0 0 0 0 0 0 0 0 0 0 0 0 0 0 0 0 0 0 0 0 0 0 0 0 0 0 0 0 0 0 0 0 0 0 0 0 0 0 0 0 0
0 0 0 0 0 0 0 0 0 0 0 0 0 0 0 0 0 0 0 0 0 0 0 0 0 0 0 0 0 0 0 0 0 0 0 0 0 0 0 0 0 0 0 0 0 0 0 0 0 0 0 0 0 0
0 0 0 0 0 0 0 0 0 0 0 0 0 0 0 0 0 0 0 0 0 0 0 0 0 0 0 0 0 0 0 0 0 0 0 0 0 0 0 0 0 0 0 0 0 0 0 0 0 0 0 0 0 0
0 0 0 0 0 0 0 0 0 0 0 0 0 0 0 0 0 0 0 0 0 0 0 0 0 0 0 0 0 0 0 0 0 0 0 0 0 0 0 0 0 0 0 0 0 0 0 0 0 0 0 0 0 0
0 0 0 0 0 0 0 0 0 0 0 0 0 0 0 0 0 0 0 0 0 0 0 0 0 0 0 0 0 0 0 0 0 0 0 0 0 -0 -0 -0 -0 -0 0 0 0 0 0 0 0 0 0 0 0 0
0 0 0 0 0 0 0 0 0 0 0 0 0 0 0 0 0 0 0 0 0 0 0 0 0 0 0 0 0 0 0 0 0 0 0 -0 -0 0 0 0 0 0 0 0 0 0 0 0 0 0 0 0 0 0
0 0 0 0 0 0 0 0 0 0 0 0 0 0 0 0 0 0 0 0 0 0 0 0 0 0 0 0 0 0 0 0 0 0 0 0 0 0 0 0 0 0 0 0 0 0 0 0 0 0 0 0 0 0
0 0 0 0 0 0 0 0 0 0 0 0 0 0 0 0 0 0 0 0 0 0 0 0 0 0 0 0 0 0 0 0 0 0 0 0 0 0 0 0 0 0 0 0 0 0 0 0 0 0 0 0 0 0
0 0 0 0 0 0 0 0 0 0 0 0 0 0 0 0 0 0 0 0 0 0 0 0 0 0 0 0 0 0 0 0 0 0 0 0 0 0 0 0 0 0 0 0 0 0 0 0 0 0 0 0 0 0
0 0 0 0 0 0 0 0 0 0 0 0 0 0 0 0 0 0 0 0 0 0 0 0 0 0 0 0 0 0 0 0 0 0 0 0 0 0 0 0 0 0 0 0 0 0 0 0 0 0 0 0 0 0
0 0 0 0 0 0 0 0 0 0 0 0 0 0 0 0 0 0 0 0 0 0 0 0 0 0 0 0 0 0 0 0 0 0 0 0 0 0 0 0 0 0 0 0 0 0 0 0 0 0 0 0 0 0
0 0 0 0 0 0 0 0 0 0 0 0 0 0 0 0 0 0 0 0 0 0 0 0 0 0 0 0 0 0 0 0 0 0 0 0 0 0 0 0 0 0 0 0 0 0 0 0 0 0 0 0 0 0
Wind_Speed_500mb
24 25 24 23 19 16 14 11 8 8 8 10 11 11 10 5 11 10 6 2 3 10 9 8 8 8 7 4 5 12 8 3 6 5 4 1 4 6 4 4 11 11 10 6 2 3 15 19 7 12 4 7 8 10
24 21 20 21 23 20 20 19 16 14 13 12 13 14 19 15 5 6 6 6 4 7 10 13 17 13 10 12 9 6 5 1 4 6 4 5 4 4 2 3 3 5 11 9 15 12 6 15 11 10 10 3 7 10
25 23 20 18 15 11 10 12 17 19 17 13 12 18 13 11 5 1 5 10 13 14 14 6 4 8 6 6 12 5 4 4 5 10 5 2 5 5 6 9 8 8 14 3 4 13 30 42 38 37 32 33 22 18
27 24 22 20 19 17 13 10 9 11 15 15 10 3 10 11 6 4 4 4 7 14 9 4 5 6 6 6 7 7 11 8 9 11 8 3 2 3 3 3 5 7 13 11 10 22 36 46 44 38 33 32 30 30
29 26 25 20 16 13 13 13 13 11 10 13 14 11 10 10 7 5 5 8 7 5 9 8 10 4 5 8 9 10 13 12 7 6 4 2 1 1 4 4 8 22 13 10 10 20 19 4 4 11 17 26 29 29
32 27 25 20 14 16 15 12 10 10 11 12 11 14 12 14 11 7 6 11 16 15 10 6 6 4 6 5 8 10 10 9 7 5 3 3 5 3 3 7 18 30 54 56 37 37 36 35 31 32 36 33 29 31
35 32 28 24 18 15 15 11 7 5 6 10 13 13 10 13 16 9 4 11 27 13 6 11 6 3 10 12 9 8 10 4 5 3 3 3 6 7 4 8 14 20 31 44 55 56 47 55 41 29 25 31 35 37
38 33 29 24 18 12 11 12 9 6 6 8 12 15 10 8 10 9 10 17 23 7 6 6 4 5 13 6 6 8 6 7 2 1 1 2 3 6 11 36 38 39 37 36 30 32 43 42 33 26 28 35 41 40
43 38 32 26 20 17 8 7 15 11 14 13 16 15 7 4 4 5 10 21 19 4 6 7 8 7 15 6 7 6 6 2 2 3 4 1 5 14 19 31 38 39 29 19 20 29 40 48 44 42 40 41 41 39
48 42 37 29 25 22 17 8 18 10 3 11 9 3 3 6 13 20 7 8 9 7 6 5 12 6 12 12 6 8 2 2 4 1 1 4 9 64 70 62 60 49 33 35 38 40 36 35 35 39 44 38 39 40
48 43 38 33 28 25 23 15 11 12 10 1 3 3 8 15 7 3 4 3 1 2 8 10 7 9 11 6 5 4 5 3 2 6 6 6 7 13 21 21 21 38 49 57 57 51 46 41 36 32 33 35 38 43
51 46 40 34 28 24 23 19 12 13 7 5 4 9 10 5 2 6 1 2 2 8 13 11 11 10 12 9 8 6 6 4 6 4 5 7 9 31 22 12 15 15 14 19 25 31 37 43 46 47 47 44 41 41
55 47 40 35 30 25 22 20 16 11 10 7 7 7 5 3 5 9 9 7 2 19 23 16 9 10 9 6 11 5 6 7 7 3 8 11 22 16 21 25 20 17 16 17 18 19 21 27 32 37 39 38 39 41
55 49 43 37 32 28 25 25 19 11 8 7 9 2 9 5 9 8 4 3 8 8 40 32 18 8 8 6 5 8 3 4 2 3 12 7 28 20 28 31 32 25 23 24 27 29 31 34 34 35 36 39 44 46
57 50 44 40 36 34 32 28 21 15 6 7 8 7 10 9 8 7 9 10 11 39 44 20 13 7 3 7 3 7 6 8 12 10 7 13 9 16 28 35 35 31 28 30 32 36 37 39 41 42 45 47 50 51
55 44 50 45 43 39 39 31 23 14 6 8 11 3 9 3 6 10 19 14 29 52 19 9 8 6 3 9 6 15 11 13 9 8 17 21 18 13 17 24 29 33 36 38 41 43 47 50 49 48 49 51 52 53
57 57 60 52 47 45 38 33 21 11 10 9 11 25 19 7 6 10 21 21 43 37 6 9 8 14 8 4 6 10 11 7 9 13 15 15 15 16 20 25 33 39 44 47 52 53 53 57 56 53 54 54 53 50
71 68 41 56 59 55 48 36 13 11 13 21 12 14 25 22 15 17 21 33 41 28 18 10 17 6 11 13 8 9 30 31 27 26 25 28 33 32 32 33 33 45 57 60 60 59 61 64 63 58 57 55 48 43
78 67 50 66 68 58 29 25 19 12 31 12 24 30 24 21 34 29 24 37 44 27 11 11 5 9 9 19 17 36 47 52 51 50 50 42 37 40 47 55 52 51 54 55 60 65 69 70 67 61 56 47 41 40
71 67 54 59 71 31 19 15 23 14 13 18 28 25 17 17 29 34 36 38 50 13 9 8 13 35 31 49 50 50 51 54 56 72 73 70 63 57 60 61 59 59 63 65 67 71 72 70 66 58 49 43 40 38
68 60 58 57 71 29 20 18 25 13 13 16 19 24 15 18 19 24 27 36 24 14 15 53 77 92 92 92 92 95 99 101 99 89 88 85 82 75 74 69 68 69 67 64 65 66 69 69 58 50 43 38 36 32
79 79 67 81 27 23 23 29 13 20 17 11 15 20 9 10 17 20 23 27 21 40 52 75 90 99 106 109 111 100 93 87 86 85 87 87 86 83 86 80 73 72 69 67 64 60 56 50 44 39 35 33 30 27
78 83 51 39 20 30 12 38 24 26 9 16 19 8 7 13 18 29 16 23 30 66 77 87 100 106 110 107 93 90 91 92 95 95 95 94 89 80 76 67 56 56 57 55 47 47 45 39 36 34 32 30 27 26
76 58 29 35 35 13 25 25 14 16 13 9 10 8 8 16 20 9 9 14 51 58 68 96 92 94 93 89 91 96 91 81 72 69 66 63 66 66 61 60 56 49 47 44 40 34 32 34 34 31 30 28 27 27
33 27 24 14 28 15 13 12 9 6 8 11 9 6 7 17 5 9 9 15 42 80 92 88 83 83 86 92 82 72 67 61 58 57 52 46 49 52 52 49 47 44 40 37 34 32 33 32 31 30 31 31 30 30
23 28 29 27 28 15 19 16 18 13 10 11 11 11 10 6 5 14 8 21 63 69 65 64 59 60 64 60 59 58 55 47 47 46 38 35 34 40 42 43 38 29 23 27 30 28 29 30 31 33 34 33 32 30
19 14 26 34 31 27 13 12 16 9 14 17 11 12 9 10 14 10 20 36 34 35 37 40 41 43 46 40 35 33 30 32 35 34 36 26 30 34 36 38 33 22 21 20 26 29 30 31 33 32 33 34 31 29
16 32 27 30 18 37 14 11 16 20 11 20 24 13 21 23 14 10 13 11 16 25 29 34 38 40 39 39 38 37 35 33 31 35 27 31 37 38 37 35 28 25 26 24 24 28 30 30 30 31 32 30 30 33
11 43 54 23 20 17 16 23 15 28 42 42 17 12 12 10 11 11 10 13 15 18 21 23 25 28 31 30 29 29 29 31 31 32 30 30 30 29 31 30 31 31 28 28 31 32 31 30 30 29 29 30 33 35
12 4 21 26 33 27 28 38 36 46 51 43 30 19 14 12 3 9 13 15 17 19 21 24 27 27 29 30 30 30 30 30 32 31 31 32 29 26 23 21 23 27 31 33 37 38 39 35 33 34 37 39 38 33
21 17 9 8 17 15 9 27 31 33 34 28 23 17 18 20 15 14 13 7 11 14 18 21 23 27 30 31 32 33 30 29 29 31 31 31 30 26 24 21 24 29 33 36 37 34 31 33 35 38 40 38 35 31
20 14 8 8 6 15 9 7 9 10 10 10 11 13 14 11 9 10 27 21 14 15 17 21 25 27 31 34 34 35 35 32 31 31 32 32 28 29 31 29 31 35 35 33 33 35 31 29 36 39 37 35 31 27
8 16 12 9 8 8 16 9 11 9 17 11 15 13 12 10 9 16 19 29 29 27 29 29 29 30 30 31 32 33 34 35 34 32 30 31 31 27 26 30 35 36 36 37 35 32 32 35 36 36 35 33 29 24
Wind_Direction_500mb
225 231 228 235 227 218 223 229 220 211 214 235 242 244 251 326 36 57 73 14 210 105 104 76 66 66 45 103 125 144 102 21 23 62 88 229 98 211 90 180 163 156 139 180 95 90 286 200 80 180 150 87 102 75
212 220 226 231 243 242 239 237 237 233 237 250 261 269 265 251 311 9 67 67 88 107 132 113 91 79 88 65 76 86 92 260 115 84 21 74 62 57 63 238 197 225 181 182 184 209 221 192 218 236 292 234 212 215
213 217 217 216 223 235 251 250 238 235 240 253 280 307 227 198 214 1 90 111 89 103 107 111 115 113 118 148 119 120 105 84 60 75 94 104 125 134 162 241 202 240 256 220 91 254 245 255 255 263 274 284 269 242
212 210 216 220 223 229 236 255 262 246 239 244 258 264 170 181 186 165 146 157 123 122 112 121 117 120 140 136 153 95 125 127 122 76 58 97 107 34 263 243 196 205 152 196 259 274 279 271 257 260 262 265 261 251
207 203 205 203 211 224 219 234 247 245 233 226 227 227 210 210 209 206 233 210 189 148 119 125 128 88 91 155 145 150 125 118 119 91 97 234 132 11 230 7 232 191 193 184 224 218 212 249 220 264 270 274 269 251
202 201 197 196 198 214 210 214 212 220 230 225 217 228 223 223 217 227 225 218 195 151 115 112 99 23 222 183 166 165 162 129 109 111 107 191 220 195 266 251 234 226 229 232 238 252 274 281 280 278 283 269 249 244
201 201 199 194 197 203 198 195 192 201 207 203 208 232 226 216 214 219 208 161 156 139 119 116 116 103 144 163 135 142 163 146 129 177 242 242 200 209 255 245 230 231 247 247 248 254 265 266 272 265 262 260 252 259
195 194 192 190 198 193 193 173 167 173 179 185 191 203 227 200 182 196 184 152 158 138 129 110 95 147 157 142 106 124 122 140 161 211 251 251 254 231 254 241 249 253 259 264 260 250 255 259 263 260 257 256 259 262
187 186 186 188 188 181 166 171 129 128 121 133 149 159 164 187 182 162 170 174 175 156 138 151 140 166 164 120 106 113 143 129 203 286 96 315 236 228 233 244 246 243 236 241 254 252 255 257 258 256 260 260 256 264
186 186 186 193 193 184 164 197 158 168 176 107 124 165 170 136 131 124 108 149 175 200 174 99 118 127 157 165 132 111 156 56 213 156 320 224 254 254 253 251 251 249 241 243 249 252 253 263 265 263 264 269 264 270
190 190 190 194 197 195 186 192 183 185 195 187 159 145 142 145 145 124 100 99 186 7 177 138 140 136 165 157 132 159 166 114 111 260 132 268 268 246 259 261 229 240 248 249 252 257 258 259 263 263 259 262 264 273
192 193 192 192 195 196 189 196 200 177 176 165 151 140 148 174 120 89 211 1 150 219 151 140 135 129 144 143 115 154 134 50 226 124 74 267 251 254 248 209 197 201 214 232 240 252 256 259 262 264 266 269 274 275
195 193 192 192 192 195 195 195 208 204 191 185 167 158 157 162 48 163 211 276 257 172 172 151 125 138 125 124 86 103 106 206 138 67 233 233 255 248 220 216 218 220 229 245 250 262 270 272 266 266 272 273 273 274
195 195 194 194 193 191 187 194 202 211 184 179 163 227 169 204 241 194 205 154 149 164 152 139 114 132 130 97 141 103 260 51 21 272 238 249 252 240 223 222 226 230 243 258 265 266 275 281 280 276 275 275 276 279
197 198 197 195 190 185 184 195 204 205 221 205 180 221 212 234 245 230 192 145 139 153 146 120 93 134 104 91 49 105 48 251 207 231 232 286 306 234 227 235 242 242 255 264 267 269 273 276 274 272 273 276 280 282
195 193 203 195 187 181 193 188 193 199 247 225 225 222 206 164 210 210 191 169 160 159 148 135 126 75 216 132 113 210 146 224 244 221 277 309 303 294 280 270 270 269 274 276 270 268 275 275 271 271 274 280 285 288
188 201 206 189 181 190 192 187 184 209 226 231 248 224 217 245 199 184 185 178 168 164 178 135 139 200 118 76 252 191 209 219 247 292 316 352 358 341 310 298 292 286 289 289 281 271 274 275 269 268 277 284 285 287
198 205 197 179 177 186 188 189 198 218 240 234 221 231 214 214 211 203 199 179 168 192 171 201 143 172 204 191 229 232 236 256 268 287 299 302 302 292 287 290 293 294 286 282 282 278 276 273 268 272 279 278 279 282
202 206 191 182 188 176 178 194 196 225 229 236 232 235 226 228 231 236 220 198 195 185 179 177 199 209 222 224 238 252 267 273 283 291 290 295 299 296 297 296 296 289 287 287 286 284 282 276 268 270 274 275 278 280
203 205 197 192 191 176 174 208 192 219 216 224 222 220 205 216 228 228 220 210 201 187 204 211 225 234 229 243 252 265 277 285 288 290 289 293 296 294 294 295 291 290 287 285 281 276 275 271 270 275 274 272 276 280
197 195 194 189 188 190 198 198 199 211 205 203 214 211 213 217 216 214 213 204 180 214 236 234 245 252 257 262 266 270 274 278 280 284 290 295 299 298 299 298 298 295 290 285 280 279 277 275 274 269 266 270 272 265
187 185 179 187 187 198 223 212 201 179 187 196 188 190 190 177 187 196 199 188 214 228 232 244 252 260 266 269 274 276 279 282 285 288 291 293 294 295 296 296 294 292 288 283 282 281 279 276 264 257 260 261 254 247
185 181 181 183 187 203 222 183 176 188 158 181 164 154 232 205 186 185 223 220 234 241 249 254 262 266 265 269 269 271 277 281 284 288 291 293 294 295 295 296 293 289 287 283 278 274 270 260 251 253 250 243 235 223
181 179 179 178 191 196 167 185 171 140 121 159 163 215 210 177 166 188 253 250 244 252 254 259 261 264 266 268 274 279 284 287 287 288 290 291 291 293 294 295 294 292 284 277 267 261 251 247 248 239 231 223 215 209
174 180 182 187 190 155 166 151 142 154 148 200 179 225 193 159 148 221 219 240 235 248 256 261 264 267 271 279 282 283 286 285 285 287 289 292 293 293 294 296 295 285 269 255 253 253 248 237 229 224 215 208 207 207
202 189 183 189 183 165 183 145 178 159 148 175 210 124 144 128 161 243 219 230 234 249 254 259 260 264 268 274 282 282 281 281 284 283 291 287 297 295 298 297 296 298 283 256 248 241 233 229 221 209 202 201 206 212
198 173 196 202 179 162 101 94 142 142 172 194 165 162 152 184 233 239 218 224 235 238 246 254 262 269 272 275 276 275 267 274 274 279 274 295 311 312 306 295 286 272 254 251 236 233 231 220 208 204 206 209 210 208
178 170 193 180 172 190 158 159 167 190 175 145 135 173 184 194 216 198 205 223 229 239 250 254 258 264 270 275 278 279 269 269 273 276 291 309 313 311 302 288 269 250 241 241 228 218 209 205 210 215 213 211 208 196
165 193 201 193 192 184 197 190 201 202 174 171 176 193 201 165 185 199 225 243 255 253 251 257 262 262 262 262 265 268 270 274 285 290 299 300 300 298 291 277 262 252 237 219 201 200 204 207 210 210 208 204 194 189
16 347 205 213 211 212 217 216 221 214 209 214 213 176 144 137 133 246 259 259 262 265 268 271 273 274 275 277 272 269 273 281 282 282 292 295 292 288 282 269 251 230 218 208 203 205 207 207 205 200 196 189 185 184
347 342 293 240 224 227 230 220 208 189 187 184 192 182 151 149 128 61 26 322 299 290 285 281 282 283 283 282 283 285 285 283 282 277 278 281 280 270 260 256 237 228 218 212 213 213 214 211 206 199 187 184 181 180
346 0 341 358 19 25 59 85 92 88 81 87 64 93 112 108 82 53 17 10 353 337 328 316 305 296 289 286 285 284 284 284 280 279 275 266 272 273 256 240 227 222 225 215 205 210 212 203 196 187 184 180 178 177
317 0 15 19 19 37 28 58 57 70 50 59 49 56 55 73 85 32 10 10 5 354 344 334 323 313 305 296 288 281 277 278 276 273 276 263 252 259 252 239 228 224 219 209 208 203 185 184 183 182 181 181 179 181
Wind_Speed_850mb
24 25 24 23 19 16 14 11 8 8 8 10 11 11 10 5 11 10 6 2 3 10 9 8 8 8 7 4 5 12 8 3 6 5 4 1 4 6 4 4 11 11 10 6 2 3 15 19 7 12 4 7 8 10
24 21 20 21 23 20 20 19 16 14 13 12 13 14 19 15 5 6 6 6 4 7 10 13 17 13 10 12 9 6 5 1 4 6 4 5 4 4 2 3 3 5 11 9 15 12 6 15 11 10 10 3 7 10
25 23 20 18 15 11 10 12 17 19 17 13 12 18 13 11 5 1 5 10 13 14 14 6 4 8 6 6 12 5 4 4 5 10 5 2 5 5 6 9 8 8 14 3 4 13 30 42 38 37 32 33 22 18
27 24 22 20 19 17 13 10 9 11 15 15 10 3 10 11 6 4 4 4 7 14 9 4 5 6 6 6 7 7 11 8 9 11 8 3 2 3 3 3 5 7 13 11 10 22 36 46 44 38 33 32 30 30
29 26 25 20 16 13 13 13 13 11 10 13 14 11 10 10 7 5 5 8 7 5 9 8 10 4 5 8 9 10 13 12 7 6 4 2 1 1 4 4 8 22 13 10 10 20 19 4 4 11 17 26 29 29
32 27 25 20 14 16 15 12 10 10 11 12 11 14 12 14 11 7 6 11 16 15 10 6 6 4 6 5 8 10 10 9 7 5 3 3 5 3 3 7 18 30 54 56 37 37 36 35 31 32 36 33 29 31
35 32 28 24 18 15 15 11 7 5 6 10 13 13 10 13 16 9 4 11 27 13 6 11 6 3 10 12 9 8 10 4 5 3 3 3 6 7 4 8 14 20 31 44 55 56 47 55 41 29 25 31 35 37
38 33 29 24 18 12 11 12 9 6 6 8 12 15 10 8 10 9 10 17 23 7 6 6 4 5 13 6 6 8 6 7 2 1 1 2 3 6 11 36 38 39 37 36 30 32 43 42 33 26 28 35 41 40
43 38 32 26 20 17 8 7 15 11 14 13 16 15 7 4 4 5 10 21 19 4 6 7 8 7 15 6 7 6 6 2 2 3 4 1 5 14 19 31 38 39 29 19 20 29 40 48 44 42 40 41 41 39
48 42 37 29 25 22 17 8 18 10 3 11 9 3 3 6 13 20 7 8 9 7 6 5 12 6 12 12 6 8 2 2 4 1 1 4 9 64 70 62 60 49 33 35 38 40 36 35 35 39 44 38 39 40
48 43 38 33 28 25 23 15 11 12 10 1 3 3 8 15 7 3 4 3 1 2 8 10 7 9 11 6 5 4 5 3 2 6 6 6 7 13 21 21 21 38 49 57 57 51 46 41 36 32 33 35 38 43
51 46 40 34 28 24 23 19 12 13 7 5 4 9 10 5 2 6 1 2 2 8 13 11 11 10 12 9 8 6 6 4 6 4 5 7 9 31 22 12 15 15 14 19 25 31 37 43 46 47 47 44 41 41
55 47 40 35 30 25 22 20 16 11 10 7 7 7 5 3 5 9 9 7 2 19 23 16 9 10 9 6 11 5 6 7 7 3 8 11 22 16 21 25 20 17 16 17 18 19 21 27 32 37 39 38 39 41
55 49 43 37 32 28 25 25 19 11 8 7 9 2 9 5 9 8 4 3 8 8 40 32 18 8 8 6 5 8 3 4 2 3 12 7 28 20 28 31 32 25 23 24 27 29 31 34 34 35 36 39 44 46
57 50 44 40 36 34 32 28 21 15 6 7 8 7 10 9 8 7 9 10 11 39 44 20 13 7 3 7 3 7 6 8 12 10 7 13 9 16 28 35 35 31 28 30 32 36 37 39 41 42 45 47 50 51
55 44 50 45 43 39 39 31 23 14 6 8 11 3 9 3 6 10 19 14 29 52 19 9 8 6 3 9 6 15 11 13 9 8 17 21 18 13 17 24 29 33 36 38 41 43 47 50 49 48 49 51 52 53
57 57 60 52 47 45 38 33 21 11 10 9 11 25 19 7 6 10 21 21 43 37 6 9 8 14 8 4 6 10 11 7 9 13 15 15 15 16 20 25 33 39 44 47 52 53 53 57 56 53 54 54 53 50
71 68 41 56 59 55 48 36 13 11 13 21 12 14 25 22 15 17 21 33 41 28 18 10 17 6 11 13 8 9 30 31 27 26 25 28 33 32 32 33 33 45 57 60 60 59 61 64 63 58 57 55 48 43
78 67 50 66 68 58 29 25 19 12 31 12 24 30 24 21 34 29 24 37 44 27 11 11 5 9 9 19 17 36 47 52 51 50 50 42 37 40 47 55 52 51 54 55 60 65 69 70 67 61 56 47 41 40
71 67 54 59 71 31 19 15 23 14 13 18 28 25 17 17 29 34 36 38 50 13 9 8 13 35 31 49 50 50 51 54 56 72 73 70 63 57 60 61 59 59 63 65 67 71 72 70 66 58 49 43 40 38
68 60 58 57 71 29 20 18 25 13 13 16 19 24 15 18 19 24 27 36 24 14 15 53 77 92 92 92 92 95 99 101 99 89 88 85 82 75 74 69 68 69 67 64 65 66 69 69 58 50 43 38 36 32
79 79 67 81 27 23 23 29 13 20 17 11 15 20 9 10 17 20 23 27 21 40 52 75 90 99 106 109 111 100 93 87 86 85 87 87 86 83 86 80 73 72 69 67 64 60 56 50 44 39 35 33 30 27
78 83 51 39 20 30 12 38 24 26 9 16 19 8 7 13 18 29 16 23 30 66 77 87 100 106 110 107 93 90 91 92 95 95 95 94 89 80 76 67 56 56 57 55 47 47 45 39 36 34 32 30 27 26
76 58 29 35 35 13 25 25 14 16 13 9 10 8 8 16 20 9 9 14 51 58 68 96 92 94 93 89 91 96 91 81 72 69 66 63 66 66 61 60 56 49 47 44 40 34 32 34 34 31 30 28 27 27
33 27 24 14 28 15 13 12 9 6 8 11 9 6 7 17 5 9 9 15 42 80 92 88 83 83 86 92 82 72 67 61 58 57 52 46 49 52 52 49 47 44 40 37 34 32 33 32 31 30 31 31 30 30
23 28 29 27 28 15 19 16 18 13 10 11 11 11 10 6 5 14 8 21 63 69 65 64 59 60 64 60 59 58 55 47 47 46 38 35 34 40 42 43 38 29 23 27 30 28 29 30 31 33 34 33 32 30
19 14 26 34 31 27 13 12 16 9 14 17 11 12 9 10 14 10 20 36 34 35 37 40 41 43 46 40 35 33 30 32 35 34 36 26 30 34 36 38 33 22 21 20 26 29 30 31 33 32 33 34 31 29
16 32 27 30 18 37 14 11 16 20 11 20 24 13 21 23 14 10 13 11 16 25 29 34 38 40 39 39 38 37 35 33 31 35 27 31 37 38 37 35 28 25 26 24 24 28 30 30 30 31 32 30 30 33
11 43 54 23 20 17 16 23 15 28 42 42 17 12 12 10 11 11 10 13 15 18 21 23 25 28 31 30 29 29 29 31 31 32 30 30 30 29 31 30 31 31 28 28 31 32 31 30 30 29 29 30 33 35
12 4 21 26 33 27 28 38 36 46 51 43 30 19 14 12 3 9 13 15 17 19 21 24 27 27 29 30 30 30 30 30 32 31 31 32 29 26 23 21 23 27 31 33 37 38 39 35 33 34 37 39 38 33
21 17 9 8 17 15 9 27 31 33 34 28 23 17 18 20 15 14 13 7 11 14 18 21 23 27 30 31 32 33 30 29 29 31 31 31 30 26 24 21 24 29 33 36 37 34 31 33 35 38 40 38 35 31
20 14 8 8 6 15 9 7 9 10 10 10 11 13 14 11 9 10 27 21 14 15 17 21 25 27 31 34 34 35 35 32 31 31 32 32 28 29 31 29 31 35 35 33 33 35 31 29 36 39 37 35 31 27
8 16 12 9 8 8 16 9 11 9 17 11 15 13 12 10 9 16 19 29 29 27 29 29 29 30 30 31 32 33 34 35 34 32 30 31 31 27 26 30 35 36 36 37 35 32 32 35 36 36 35 33 29 24
Wind_Direction_850mb
225 231 228 235 227 218 223 229 220 211 214 235 242 244 251 326 36 57 73 14 210 105 104 76 66 66 45 103 125 144 102 21 23 62 88 229 98 211 90 180 163 156 139 180 95 90 286 200 80 180 150 87 102 75
212 220 226 231 243 242 239 237 237 233 237 250 261 269 265 251 311 9 67 67 88 107 132 113 91 79 88 65 76 86 92 260 115 84 21 74 62 57 63 238 197 225 181 182 184 209 221 192 218 236 292 234 212 215
213 217 217 216 223 235 251 250 238 235 240 253 280 307 227 198 214 1 90 111 89 103 107 111 115 113 118 148 119 120 105 84 60 75 94 104 125 134 162 241 202 240 256 220 91 254 245 255 255 263 274 284 269 242
212 210 216 220 223 229 236 255 262 246 239 244 258 264 170 181 186 165 146 157 123 122 112 121 117 120 140 136 153 95 125 127 122 76 58 97 107 34 263 243 196 205 152 196 259 274 279 271 257 260 262 265 261 251
207 203 205 203 211 224 219 234 247 245 233 226 227 227 210 210 209 206 233 210 189 148 119 125 128 88 91 155 145 150 125 118 119 91 97 234 132 11 230 7 232 191 193 184 224 218 212 249 220 264 270 274 269 251
202 201 197 196 198 214 210 214 212 220 230 225 217 228 223 223 217 227 225 218 195 151 115 112 99 23 222 183 166 165 162 129 109 111 107 191 220 195 266 251 234 226 229 232 238 252 274 281 280 278 283 269 249 244
201 201 199 194 197 203 198 195 192 201 207 203 208 232 226 216 214 219 208 161 156 139 119 116 116 103 144 163 135 142 163 146 129 177 242 242 200 209 255 245 230 231 247 247 248 254 265 266 272 265 262 260 252 259
195 194 192 190 198 193 193 173 167 173 179 185 191 203 227 200 182 196 184 152 158 138 129 110 95 147 157 142 106 124 122 140 161 211 251 251 254 231 254 241 249 253 259 264 260 250 255 259 263 260 257 256 259 262
187 186 186 188 188 181 166 171 129 128 121 133 149 159 164 187 182 162 170 174 175 156 138 151 140 166 164 120 106 113 143 129 203 286 96 315 236 228 233 244 246 243 236 241 254 252 255 257 258 256 260 260 256 264
186 186 186 193 193 184 164 197 158 168 176 107 124 165 170 136 131 124 108 149 175 200 174 99 118 127 157 165 132 111 156 56 213 156 320 224 254 254 253 251 251 249 241 243 249 252 253 263 265 263 264 269 264 270
190 190 190 194 197 195 186 192 183 185 195 187 159 145 142 145 145 124 100 99 186 7 177 138 140 136 165 157 132 159 166 114 111 260 132 268 268 246 259 261 229 240 248 249 252 257 258 259 263 263 259 262 264 273
192 193 192 192 195 196 189 196 200 177 176 165 151 140 148 174 120 89 211 1 150 219 151 140 135 129 144 143 115 154 134 50 226 124 74 267 251 254 248 209 197 201 214 232 240 252 256 259 262 264 266 269 274 275
195 193 192 192 192 195 195 195 208 204 191 185 167 158 157 162 48 163 211 276 257 172 172 151 125 138 125 124 86 103 106 206 138 67 233 233 255 248 220 216 218 220 229 245 250 262 270 272 266 266 272 273 273 274
195 195 194 194 193 191 187 194 202 211 184 179 163 227 169 204 241 194 205 154 149 164 152 139 114 132 130 97 141 103 260 51 21 272 238 249 252 240 223 222 226 230 243 258 265 266 275 281 280 276 275 275 276 279
197 198 197 195 190 185 184 195 204 205 221 205 180 221 212 234 245 230 192 145 139 153 146 120 93 134 104 91 49 105 48 251 207 231 232 286 306 234 227 235 242 242 255 264 267 269 273 276 274 272 273 276 280 282
195 193 203 195 187 181 193 188 193 199 247 225 225 222 206 164 210 210 191 169 160 159 148 135 126 75 216 132 113 210 146 224 244 221 277 309 303 294 280 270 270 269 274 276 270 268 275 275 271 271 274 280 285 288
188 201 206 189 181 190 192 187 184 209 226 231 248 224 217 245 199 184 185 178 168 164 178 135 139 200 118 76 252 191 209 219 247 292 316 352 358 341 310 298 292 286 289 289 281 271 274 275 269 268 277 284 285 287
198 205 197 179 177 186 188 189 198 218 240 234 221 231 214 214 211 203 199 179 168 192 171 201 143 172 204 191 229 232 236 256 268 287 299 302 302 292 287 290 293 294 286 282 282 278 276 273 268 272 279 278 279 282
202 206 191 182 188 176 178 194 196 225 229 236 232 235 226 228 231 236 220 198 195 185 179 177 199 209 222 224 238 252 267 273 283 291 290 295 299 296 297 296 296 289 287 287 286 284 282 276 268 270 274 275 278 280
203 205 197 192 191 176 174 208 192 219 216 224 222 220 205 216 228 228 220 210 201 187 204 211 225 234 229 243 252 265 277 285 288 290 289 293 296 294 294 295 291 290 287 285 281 276 275 271 270 275 274 272 276 280
197 195 194 189 188 190 198 198 199 211 205 203 214 211 213 217 216 214 213 204 180 214 236 234 245 252 257 262 266 270 274 278 280 284 290 295 299 298 299 298 298 295 290 285 280 279 277 275 274 269 266 270 272 265
187 185 179 187 187 198 223 212 201 179 187 196 188 190 190 177 187 196 199 188 214 228 232 244 252 260 266 269 274 276 279 282 285 288 291 293 294 295 296 296 294 292 288 283 282 281 279 276 264 257 260 261 254 247
185 181 181 183 187 203 222 183 176 188 158 181 164 154 232 205 186 185 223 220 234 241 249 254 262 266 265 269 269 271 277 281 284 288 291 293 294 295 295 296 293 289 287 283 278 274 270 260 251 253 250 243 235 223
181 179 179 178 191 196 167 185 171 140 121 159 163 215 210 177 166 188 253 250 244 252 254 259 261 264 266 268 274 279 284 287 287 288 290 291 291 293 294 295 294 292 284 277 267 261 251 247 248 239 231 223 215 209
174 180 182 187 190 155 166 151 142 154 148 200 179 225 193 159 148 221 219 240 235 248 256 261 264 267 271 279 282 283 286 285 285 287 289 292 293 293 294 296 295 285 269 255 253 253 248 237 229 224 215 208 207 207
202 189 183 189 183 165 183 145 178 159 148 175 210 124 144 128 161 243 219 230 234 249 254 259 260 264 268 274 282 282 281 281 284 283 291 287 297 295 298 297 296 298 283 256 248 241 233 229 221 209 202 201 206 212
198 173 196 202 179 162 101 94 142 142 172 194 165 162 152 184 233 239 218 224 235 238 246 254 262 269 272 275 276 275 267 274 274 279 274 295 311 312 306 295 286 272 254 251 236 233 231 220 208 204 206 209 210 208
178 170 193 180 172 190 158 159 167 190 175 145 135 173 184 194 216 198 205 223 229 239 250 254 258 264 270 275 278 279 269 269 273 276 291 309 313 311 302 288 269 250 241 241 228 218 209 205 210 215 213 211 208 196
165 193 201 193 192 184 197 190 201 202 174 171 176 193 201 165 185 199 225 243 255 253 251 257 262 262 262 262 265 268 270 274 285 290 299 300 300 298 291 277 262 252 237 219 201 200 204 207 210 210 208 204 194 189
16 347 205 213 211 212 217 216 221 214 209 214 213 176 144 137 133 246 259 259 262 265 268 271 273 274 275 277 272 269 273 281 282 282 292 295 292 288 282 269 251 230 218 208 203 205 207 207 205 200 196 189 185 184
347 342 293 240 224 227 230 220 208 189 187 184 192 182 151 149 128 61 26 322 299 290 285 281 282 283 283 282 283 285 285 283 282 277 278 281 280 270 260 256 237 228 218 212 213 213 214 211 206 199 187 184 181 180
346 0 341 358 19 25 59 85 92 88 81 87 64 93 112 108 82 53 17 10 353 337 328 316 305 296 289 286 285 284 284 284 280 279 275 266 272 273 256 240 227 222 225 215 205 210 212 203 196 187 184 180 178 177
317 0 15 19 19 37 28 58 57 70 50 59 49 56 55 73 85 32 10 10 5 354 344 334 323 313 305 296 288 281 277 278 276 273 276 263 252 259 252 239 228 224 219 209 208 203 185 184 183 182 181 181 179 181